Time,TemperatureF,DewpointF,PressureIn,WindDirection,WindDirectionDegrees,WindSpeedMPH,WindSpeedGustMPH,Humidity,HourlyPrecipIn,Conditions,Clouds,dailyrainin,SoftwareType,DateUTC
2013-03-13 00:00:00,46.8,19.2,30.09,NE,51,0.0,0.0,33,0.00,,---,0.00,VWS V14.01,2013-03-13 07:00:00,
2013-03-13 00:05:00,46.8,19.2,30.09,ENE,76,0.0,2.0,33,0.00,,---,0.00,VWS V14.01,2013-03-13 07:05:00,
2013-03-13 00:10:00,46.9,19.3,30.09,East,86,0.0,0.0,33,0.00,,---,0.00,VWS V14.01,2013-03-13 07:10:00,
2013-03-13 00:15:00,46.9,20.0,30.08,East,86,1.0,1.0,34,0.00,,---,0.00,VWS V14.01,2013-03-13 07:15:00,
2013-03-13 00:20:00,46.8,19.9,30.08,East,86,0.0,2.0,34,0.00,,---,0.00,VWS V14.01,2013-03-13 07:20:00,
2013-03-13 00:25:00,46.2,19.4,30.08,East,91,3.0,3.0,34,0.00,,---,0.00,VWS V14.01,2013-03-13 07:25:00,
2013-03-13 00:30:00,46.0,19.9,30.08,East,92,0.0,2.0,35,0.00,,---,0.00,VWS V14.01,2013-03-13 07:30:00,
2013-03-13 00:35:00,46.0,19.9,30.08,East,92,0.0,3.0,35,0.00,,---,0.00,VWS V14.01,2013-03-13 07:35:00,
2013-03-13 00:40:00,46.2,20.1,30.08,East,94,0.0,3.0,35,0.00,,---,0.00,VWS V14.01,2013-03-13 07:40:00,
2013-03-13 00:45:00,46.4,20.2,30.09,East,94,0.0,3.0,35,0.00,,---,0.00,VWS V14.01,2013-03-13 07:45:00,
2013-03-13 00:50:00,46.7,19.8,30.09,East,94,2.0,2.0,34,0.00,,---,0.00,VWS V14.01,2013-03-13 07:50:00,
2013-03-13 00:55:00,46.9,20.0,30.08,East,95,0.0,2.0,34,0.00,,---,0.00,VWS V14.01,2013-03-13 07:55:00,
2013-03-13 01:00:00,47.0,20.1,30.09,East,96,0.0,0.0,34,0.00,,---,0.00,VWS V14.01,2013-03-13 08:00:00,
2013-03-13 01:05:00,47.3,19.7,30.09,East,97,0.0,0.0,33,0.00,,---,0.00,VWS V14.01,2013-03-13 08:05:00,
2013-03-13 01:10:00,47.7,20.0,30.09,East,96,0.0,0.0,33,0.00,,---,0.00,VWS V14.01,2013-03-13 08:10:00,
2013-03-13 01:15:00,47.9,20.2,30.09,East,96,0.0,2.0,33,0.00,,---,0.00,VWS V14.01,2013-03-13 08:15:00,
2013-03-13 01:20:00,47.5,20.5,30.09,East,96,0.0,0.0,34,0.00,,---,0.00,VWS V14.01,2013-03-13 08:20:00,
2013-03-13 01:25:00,47.0,20.8,30.09,East,94,1.0,3.0,35,0.00,,---,0.00,VWS V14.01,2013-03-13 08:25:00,
2013-03-13 01:30:00,46.2,20.7,30.09,East,92,2.0,3.0,36,0.00,,---,0.00,VWS V14.01,2013-03-13 08:30:00,
2013-03-13 01:35:00,45.6,20.9,30.09,East,92,0.0,0.0,37,0.00,,---,0.00,VWS V14.01,2013-03-13 08:35:00,
2013-03-13 01:40:00,45.4,20.7,30.09,East,90,0.0,3.0,37,0.00,,---,0.00,VWS V14.01,2013-03-13 08:40:00,
2013-03-13 01:45:00,45.3,19.9,30.09,East,90,0.0,2.0,36,0.00,,---,0.00,VWS V14.01,2013-03-13 08:45:00,
2013-03-13 01:50:00,44.8,20.1,30.09,East,90,0.0,0.0,37,0.00,,---,0.00,VWS V14.01,2013-03-13 08:50:00,
2013-03-13 01:55:00,44.0,20.0,30.09,East,90,0.0,0.0,38,0.00,,---,0.00,VWS V14.01,2013-03-13 08:55:00,
2013-03-13 02:00:00,43.5,19.6,30.09,East,90,0.0,0.0,38,0.00,,---,0.00,VWS V14.01,2013-03-13 09:00:00,
2013-03-13 02:05:00,43.3,19.4,30.08,East,90,1.0,1.0,38,0.00,,---,0.00,VWS V14.01,2013-03-13 09:05:00,
2013-03-13 02:10:00,43.3,19.4,30.09,East,90,0.0,2.0,38,0.00,,---,0.00,VWS V14.01,2013-03-13 09:10:00,
2013-03-13 02:15:00,43.5,19.6,30.09,East,90,1.0,2.0,38,0.00,,---,0.00,VWS V14.01,2013-03-13 09:15:00,
2013-03-13 02:20:00,43.4,20.1,30.08,East,90,0.0,2.0,39,0.00,,---,0.00,VWS V14.01,2013-03-13 09:20:00,
2013-03-13 02:25:00,43.2,19.9,30.08,East,90,0.0,3.0,39,0.00,,---,0.00,VWS V14.01,2013-03-13 09:25:00,
2013-03-13 02:30:00,43.1,19.8,30.08,East,90,0.0,2.0,39,0.00,,---,0.00,VWS V14.01,2013-03-13 09:30:00,
2013-03-13 02:35:00,43.0,20.4,30.08,East,90,0.0,2.0,40,0.00,,---,0.00,VWS V14.01,2013-03-13 09:35:00,
2013-03-13 02:40:00,42.8,20.2,30.08,East,90,3.0,3.0,40,0.00,,---,0.00,VWS V14.01,2013-03-13 09:40:00,
2013-03-13 02:45:00,42.7,20.1,30.08,East,90,3.0,4.0,40,0.00,,---,0.00,VWS V14.01,2013-03-13 09:45:00,
2013-03-13 02:50:00,42.9,20.3,30.07,East,89,3.0,4.0,40,0.00,,---,0.00,VWS V14.01,2013-03-13 09:50:00,
2013-03-13 02:55:00,42.6,20.0,30.08,East,88,0.0,2.0,40,0.00,,---,0.00,VWS V14.01,2013-03-13 09:55:00,
2013-03-13 03:00:00,42.4,20.4,30.08,East,88,0.0,1.0,41,0.00,,---,0.00,VWS V14.01,2013-03-13 10:00:00,
2013-03-13 03:05:00,42.1,20.1,30.08,East,88,0.0,2.0,41,0.00,,---,0.00,VWS V14.01,2013-03-13 10:05:00,
2013-03-13 03:10:00,42.0,20.0,30.08,East,88,0.0,2.0,41,0.00,,---,0.00,VWS V14.01,2013-03-13 10:10:00,
2013-03-13 03:15:00,41.9,20.5,30.08,East,88,0.0,3.0,42,0.00,,---,0.00,VWS V14.01,2013-03-13 10:15:00,
2013-03-13 03:20:00,41.8,20.4,30.08,East,88,3.0,3.0,42,0.00,,---,0.00,VWS V14.01,2013-03-13 10:20:00,
2013-03-13 03:25:00,41.9,21.0,30.08,East,88,2.0,3.0,43,0.00,,---,0.00,VWS V14.01,2013-03-13 10:25:00,
2013-03-13 03:30:00,42.0,20.6,30.07,East,88,2.0,3.0,42,0.00,,---,0.00,VWS V14.01,2013-03-13 10:30:00,
2013-03-13 03:35:00,42.2,20.8,30.07,East,88,2.0,3.0,42,0.00,,---,0.00,VWS V14.01,2013-03-13 10:35:00,
2013-03-13 03:40:00,42.2,20.8,30.07,East,88,3.0,4.0,42,0.00,,---,0.00,VWS V14.01,2013-03-13 10:40:00,
2013-03-13 03:45:00,42.7,21.2,30.07,East,88,0.0,2.0,42,0.00,,---,0.00,VWS V14.01,2013-03-13 10:45:00,
2013-03-13 03:50:00,43.2,21.1,30.07,East,85,0.0,4.0,41,0.00,,---,0.00,VWS V14.01,2013-03-13 10:50:00,
2013-03-13 03:55:00,43.7,21.0,30.07,East,86,3.0,3.0,40,0.00,,---,0.00,VWS V14.01,2013-03-13 10:55:00,
2013-03-13 04:00:00,43.7,21.0,30.08,East,86,0.0,0.0,40,0.00,,---,0.00,VWS V14.01,2013-03-13 11:00:00,
2013-03-13 04:05:00,43.4,21.3,30.07,East,86,0.0,0.0,41,0.00,,---,0.00,VWS V14.01,2013-03-13 11:05:00,
2013-03-13 04:10:00,43.0,20.9,30.07,East,86,0.0,1.0,41,0.00,,---,0.00,VWS V14.01,2013-03-13 11:10:00,
2013-03-13 04:15:00,43.2,21.1,30.07,East,86,0.0,0.0,41,0.00,,---,0.00,VWS V14.01,2013-03-13 11:15:00,
2013-03-13 04:20:00,42.7,21.2,30.07,East,86,0.0,0.0,42,0.00,,---,0.00,VWS V14.01,2013-03-13 11:20:00,
2013-03-13 04:25:00,42.3,20.9,30.07,East,86,0.0,0.0,42,0.00,,---,0.00,VWS V14.01,2013-03-13 11:25:00,
2013-03-13 04:30:00,42.0,21.1,30.07,East,86,0.0,0.0,43,0.00,,---,0.00,VWS V14.01,2013-03-13 11:30:00,
2013-03-13 04:35:00,41.8,21.0,30.07,East,86,0.0,0.0,43,0.00,,---,0.00,VWS V14.01,2013-03-13 11:35:00,
2013-03-13 04:40:00,41.6,20.8,30.07,East,86,0.0,1.0,43,0.00,,---,0.00,VWS V14.01,2013-03-13 11:40:00,
2013-03-13 04:45:00,41.4,20.6,30.07,East,86,0.0,0.0,43,0.00,,---,0.00,VWS V14.01,2013-03-13 11:45:00,
2013-03-13 04:50:00,41.4,20.6,30.08,East,84,0.0,0.0,43,0.00,,---,0.00,VWS V14.01,2013-03-13 11:50:00,
2013-03-13 04:55:00,41.3,20.5,30.08,East,84,0.0,3.0,43,0.00,,---,0.00,VWS V14.01,2013-03-13 11:55:00,
2013-03-13 05:00:00,41.1,20.9,30.08,East,84,1.0,1.0,44,0.00,,---,0.00,VWS V14.01,2013-03-13 12:00:00,
2013-03-13 05:05:00,41.3,20.5,30.08,East,87,0.0,3.0,43,0.00,,---,0.00,VWS V14.01,2013-03-13 12:05:00,
2013-03-13 05:10:00,41.3,20.5,30.08,East,87,0.0,0.0,43,0.00,,---,0.00,VWS V14.01,2013-03-13 12:10:00,
2013-03-13 05:15:00,41.8,21.0,30.09,East,86,0.0,0.0,43,0.00,,---,0.00,VWS V14.01,2013-03-13 12:15:00,
2013-03-13 05:20:00,42.7,20.7,30.09,East,85,0.0,1.0,41,0.00,,---,0.00,VWS V14.01,2013-03-13 12:20:00,
2013-03-13 05:25:00,43.4,21.3,30.09,ENE,70,1.0,5.0,41,0.00,,---,0.00,VWS V14.01,2013-03-13 12:25:00,
2013-03-13 05:30:00,44.6,21.2,30.09,ENE,69,0.0,0.0,39,0.00,,---,0.00,VWS V14.01,2013-03-13 12:30:00,
2013-03-13 05:35:00,45.4,20.7,30.09,East,83,0.0,0.0,37,0.00,,---,0.00,VWS V14.01,2013-03-13 12:35:00,
2013-03-13 05:40:00,45.6,20.9,30.09,ENE,78,3.0,3.0,37,0.00,,---,0.00,VWS V14.01,2013-03-13 12:40:00,
2013-03-13 05:45:00,45.3,20.6,30.09,East,82,0.0,0.0,37,0.00,,---,0.00,VWS V14.01,2013-03-13 12:45:00,
2013-03-13 05:50:00,44.6,20.6,30.09,East,82,0.0,0.0,38,0.00,,---,0.00,VWS V14.01,2013-03-13 12:50:00,
2013-03-13 05:55:00,44.2,20.8,30.10,East,80,0.0,2.0,39,0.00,,---,0.00,VWS V14.01,2013-03-13 12:55:00,
2013-03-13 06:00:00,43.9,20.6,30.10,East,80,0.0,0.0,39,0.00,,---,0.00,VWS V14.01,2013-03-13 13:00:00,
2013-03-13 06:05:00,43.3,20.6,30.10,ENE,60,4.0,4.0,40,0.00,,---,0.00,VWS V14.01,2013-03-13 13:05:00,
2013-03-13 06:10:00,44.0,20.0,30.10,ENE,64,4.0,5.0,38,0.00,,---,0.00,VWS V14.01,2013-03-13 13:10:00,
2013-03-13 06:15:00,45.2,19.9,30.10,ENE,66,0.0,2.0,36,0.00,,---,0.00,VWS V14.01,2013-03-13 13:15:00,
2013-03-13 06:20:00,45.2,19.9,30.10,ENE,67,0.0,1.0,36,0.00,,---,0.00,VWS V14.01,2013-03-13 13:20:00,
2013-03-13 06:25:00,45.2,19.2,30.10,ENE,65,0.0,2.0,35,0.00,,---,0.00,VWS V14.01,2013-03-13 13:25:00,
2013-03-13 06:30:00,47.0,18.7,30.10,NE,52,9.0,12.0,32,0.00,,---,0.00,VWS V14.01,2013-03-13 13:30:00,
2013-03-13 06:35:00,48.2,19.0,30.11,ENE,57,6.0,12.0,31,0.00,,---,0.00,VWS V14.01,2013-03-13 13:35:00,
2013-03-13 06:40:00,48.6,19.4,30.10,NNE,26,7.0,13.0,31,0.00,,---,0.00,VWS V14.01,2013-03-13 13:40:00,
2013-03-13 06:45:00,48.9,18.9,30.10,ENE,61,6.0,10.0,30,0.00,,---,0.00,VWS V14.01,2013-03-13 13:45:00,
2013-03-13 06:50:00,49.2,19.1,30.10,ENE,59,5.0,11.0,30,0.00,,---,0.00,VWS V14.01,2013-03-13 13:50:00,
2013-03-13 06:55:00,49.6,19.5,30.10,NE,40,6.0,13.0,30,0.00,,---,0.00,VWS V14.01,2013-03-13 13:55:00,
2013-03-13 07:00:00,50.2,19.2,30.10,NE,53,5.0,11.0,29,0.00,,---,0.00,VWS V14.01,2013-03-13 14:00:00,
2013-03-13 07:05:00,50.5,19.5,30.10,NNE,32,5.0,11.0,29,0.00,,---,0.00,VWS V14.01,2013-03-13 14:05:00,
2013-03-13 07:10:00,50.8,19.7,30.10,NE,55,4.0,10.0,29,0.00,,---,0.00,VWS V14.01,2013-03-13 14:10:00,
2013-03-13 07:15:00,51.0,19.9,30.10,NE,51,7.0,9.0,29,0.00,,---,0.00,VWS V14.01,2013-03-13 14:15:00,
2013-03-13 07:20:00,51.5,19.5,30.10,NE,56,5.0,10.0,28,0.00,,---,0.00,VWS V14.01,2013-03-13 14:20:00,
2013-03-13 07:25:00,52.1,20.0,30.10,NE,49,6.0,8.0,28,0.00,,---,0.00,VWS V14.01,2013-03-13 14:25:00,
2013-03-13 07:30:00,52.7,20.5,30.11,ENE,64,2.0,6.0,28,0.00,,---,0.00,VWS V14.01,2013-03-13 14:30:00,
2013-03-13 07:35:00,53.2,20.1,30.11,NE,52,5.0,6.0,27,0.00,,---,0.00,VWS V14.01,2013-03-13 14:35:00,
2013-03-13 07:40:00,53.8,20.6,30.11,NE,44,6.0,10.0,27,0.00,,---,0.00,VWS V14.01,2013-03-13 14:40:00,
2013-03-13 07:45:00,54.4,20.2,30.11,NE,51,7.0,10.0,26,0.00,,---,0.00,VWS V14.01,2013-03-13 14:45:00,
2013-03-13 07:50:00,55.2,20.9,30.11,NNE,32,2.0,9.0,26,0.00,,---,0.00,VWS V14.01,2013-03-13 14:50:00,
2013-03-13 07:55:00,55.8,21.5,30.11,NE,51,2.0,10.0,26,0.00,,---,0.00,VWS V14.01,2013-03-13 14:55:00,
2013-03-13 08:00:00,56.3,21.0,30.11,NE,47,1.0,10.0,25,0.00,,---,0.00,VWS V14.01,2013-03-13 15:00:00,
2013-03-13 08:05:00,57.0,21.5,30.11,ENE,60,0.0,7.0,25,0.00,,---,0.00,VWS V14.01,2013-03-13 15:05:00,
2013-03-13 08:10:00,58.0,22.4,30.11,NE,53,0.0,7.0,25,0.00,,---,0.00,VWS V14.01,2013-03-13 15:10:00,
2013-03-13 08:15:00,59.0,22.3,30.11,ENE,58,1.0,2.0,24,0.00,,---,0.00,VWS V14.01,2013-03-13 15:15:00,
2013-03-13 08:20:00,59.8,23.0,30.11,ENE,58,3.0,5.0,24,0.00,,---,0.00,VWS V14.01,2013-03-13 15:20:00,
2013-03-13 08:25:00,60.8,22.8,30.11,ENE,57,0.0,7.0,23,0.00,,---,0.00,VWS V14.01,2013-03-13 15:25:00,
2013-03-13 08:30:00,61.3,23.2,30.11,ENE,60,0.0,4.0,23,0.00,,---,0.00,VWS V14.01,2013-03-13 15:30:00,
2013-03-13 08:35:00,61.8,22.6,30.11,NE,53,4.0,5.0,22,0.00,,---,0.00,VWS V14.01,2013-03-13 15:35:00,
2013-03-13 08:40:00,62.6,23.2,30.11,ENE,65,1.0,4.0,22,0.00,,---,0.00,VWS V14.01,2013-03-13 15:40:00,
2013-03-13 08:45:00,63.2,23.8,30.11,ENE,65,2.0,3.0,22,0.00,,---,0.00,VWS V14.01,2013-03-13 15:45:00,
2013-03-13 08:50:00,63.6,24.1,30.12,ENE,65,0.0,4.0,22,0.00,,---,0.00,VWS V14.01,2013-03-13 15:50:00,
2013-03-13 08:55:00,64.1,23.4,30.12,NE,45,0.0,4.0,21,0.00,,---,0.00,VWS V14.01,2013-03-13 15:55:00,
2013-03-13 09:00:00,64.8,24.0,30.12,NE,52,0.0,4.0,21,0.00,,---,0.00,VWS V14.01,2013-03-13 16:00:00,
2013-03-13 09:05:00,65.1,23.1,30.12,NE,55,0.0,4.0,20,0.00,,---,0.00,VWS V14.01,2013-03-13 16:05:00,
2013-03-13 09:10:00,65.4,23.3,30.12,North,360,3.0,5.0,20,0.00,,---,0.00,VWS V14.01,2013-03-13 16:10:00,
2013-03-13 09:15:00,65.4,24.5,30.12,North,355,0.0,5.0,21,0.00,,---,0.00,VWS V14.01,2013-03-13 16:15:00,
2013-03-13 09:20:00,65.8,24.8,30.12,NE,46,1.0,5.0,21,0.00,,---,0.00,VWS V14.01,2013-03-13 16:20:00,
2013-03-13 09:25:00,66.0,23.8,30.12,NNE,14,6.0,9.0,20,0.00,,---,0.00,VWS V14.01,2013-03-13 16:25:00,
2013-03-13 09:30:00,66.1,22.7,30.12,NE,49,5.0,6.0,19,0.00,,---,0.00,VWS V14.01,2013-03-13 16:30:00,
2013-03-13 09:35:00,66.7,23.2,30.11,NE,53,11.0,11.0,19,0.00,,---,0.00,VWS V14.01,2013-03-13 16:35:00,
2013-03-13 09:40:00,66.8,22.0,30.11,NE,34,0.0,0.0,18,0.00,,---,0.00,VWS V14.01,2013-03-13 16:40:00,
2013-03-13 09:45:00,67.2,22.3,30.11,NE,36,0.0,0.0,18,0.00,,---,0.00,VWS V14.01,2013-03-13 16:45:00,
2013-03-13 09:50:00,67.7,24.0,30.11,NE,35,0.0,0.0,19,0.00,,---,0.00,VWS V14.01,2013-03-13 16:50:00,
2013-03-13 09:55:00,68.0,23.0,30.11,NE,34,0.0,2.0,18,0.00,,---,0.00,VWS V14.01,2013-03-13 16:55:00,
2013-03-13 10:00:00,68.3,23.2,30.11,North,349,0.0,1.0,18,0.00,,---,0.00,VWS V14.01,2013-03-13 17:00:00,
2013-03-13 10:05:00,68.4,23.3,30.11,North,349,4.0,4.0,18,0.00,,---,0.00,VWS V14.01,2013-03-13 17:05:00,
2013-03-13 10:10:00,68.5,23.4,30.11,NW,319,6.0,8.0,18,0.00,,---,0.00,VWS V14.01,2013-03-13 17:10:00,
2013-03-13 10:15:00,68.7,23.5,30.11,NW,311,3.0,7.0,18,0.00,,---,0.00,VWS V14.01,2013-03-13 17:15:00,
2013-03-13 10:20:00,68.9,23.7,30.11,NW,311,2.0,10.0,18,0.00,,---,0.00,VWS V14.01,2013-03-13 17:20:00,
2013-03-13 10:25:00,69.2,23.9,30.11,NE,50,4.0,7.0,18,0.00,,---,0.00,VWS V14.01,2013-03-13 17:25:00,
2013-03-13 10:30:00,70.0,24.6,30.11,North,5,4.0,9.0,18,0.00,,---,0.00,VWS V14.01,2013-03-13 17:30:00,
2013-03-13 10:35:00,70.1,23.3,30.11,North,360,6.0,7.0,17,0.00,,---,0.00,VWS V14.01,2013-03-13 17:35:00,
2013-03-13 10:40:00,70.4,23.5,30.11,ENE,63,0.0,7.0,17,0.00,,---,0.00,VWS V14.01,2013-03-13 17:40:00,
2013-03-13 10:45:00,70.7,23.8,30.11,NNW,331,5.0,8.0,17,0.00,,---,0.00,VWS V14.01,2013-03-13 17:45:00,
2013-03-13 10:50:00,70.1,23.3,30.11,WNW,286,0.0,5.0,17,0.00,,---,0.00,VWS V14.01,2013-03-13 17:50:00,
2013-03-13 10:55:00,70.3,23.5,30.11,North,355,2.0,8.0,17,0.00,,---,0.00,VWS V14.01,2013-03-13 17:55:00,
2013-03-13 11:00:00,71.0,24.0,30.11,North,350,0.0,2.0,17,0.00,,---,0.00,VWS V14.01,2013-03-13 18:00:00,
2013-03-13 11:05:00,71.9,24.8,30.11,NW,314,1.0,2.0,17,0.00,,---,0.00,VWS V14.01,2013-03-13 18:05:00,
2013-03-13 11:09:00,72.2,25.0,30.11,WNW,300,7.0,9.0,17,0.00,,---,0.00,VWS V14.01,2013-03-13 18:09:00,
2013-03-13 11:10:00,72.2,23.5,30.11,WNW,293,6.0,8.0,16,0.00,,---,0.00,VWS V14.01,2013-03-13 18:10:00,
2013-03-13 11:14:00,72.2,25.0,30.11,WNW,287,3.0,8.0,17,0.00,,---,0.00,VWS V14.01,2013-03-13 18:14:00,
2013-03-13 11:15:00,72.2,25.0,30.11,WNW,302,7.0,10.0,17,0.00,,---,0.00,VWS V14.01,2013-03-13 18:15:00,
2013-03-13 11:19:00,72.2,23.5,30.10,West,279,7.0,10.0,16,0.00,,---,0.00,VWS V14.01,2013-03-13 18:19:00,
2013-03-13 11:20:00,72.1,24.9,30.10,WSW,246,3.0,8.0,17,0.00,,---,0.00,VWS V14.01,2013-03-13 18:20:00,
2013-03-13 11:24:00,72.2,23.5,30.10,WSW,248,4.0,7.0,16,0.00,,---,0.00,VWS V14.01,2013-03-13 18:24:00,
2013-03-13 11:25:00,72.3,23.6,30.10,WSW,254,7.0,10.0,16,0.00,,---,0.00,VWS V14.01,2013-03-13 18:25:00,
2013-03-13 11:29:00,71.9,23.3,30.10,West,262,4.0,7.0,16,0.00,,---,0.00,VWS V14.01,2013-03-13 18:29:00,
2013-03-13 11:30:00,72.0,24.8,30.10,WSW,256,5.0,10.0,17,0.00,,---,0.00,VWS V14.01,2013-03-13 18:30:00,
2013-03-13 11:34:00,71.9,24.8,30.10,West,277,4.0,5.0,17,0.00,,---,0.00,VWS V14.01,2013-03-13 18:34:00,
2013-03-13 11:35:00,71.8,23.2,30.10,WSW,246,3.0,7.0,16,0.00,,---,0.00,VWS V14.01,2013-03-13 18:35:00,
2013-03-13 11:39:00,72.6,23.9,30.10,WNW,292,4.0,5.0,16,0.00,,---,0.00,VWS V14.01,2013-03-13 18:39:00,
2013-03-13 11:40:00,72.5,23.8,30.10,WNW,292,5.0,12.0,16,0.00,,---,0.00,VWS V14.01,2013-03-13 18:40:00,
2013-03-13 11:44:00,72.6,23.9,30.09,NW,310,5.0,6.0,16,0.00,,---,0.00,VWS V14.01,2013-03-13 18:44:00,
2013-03-13 11:45:00,72.6,23.9,30.10,West,274,4.0,9.0,16,0.00,,---,0.00,VWS V14.01,2013-03-13 18:45:00,
2013-03-13 11:49:00,73.1,24.3,30.09,NW,323,1.0,2.0,16,0.00,,---,0.00,VWS V14.01,2013-03-13 18:49:00,
2013-03-13 11:50:00,72.9,24.1,30.10,NW,323,0.0,7.0,16,0.00,,---,0.00,VWS V14.01,2013-03-13 18:50:00,
2013-03-13 11:54:00,73.9,24.9,30.09,NW,315,2.0,4.0,16,0.00,,---,0.00,VWS V14.01,2013-03-13 18:54:00,
2013-03-13 11:55:00,73.7,24.8,30.09,NW,315,1.0,5.0,16,0.00,,---,0.00,VWS V14.01,2013-03-13 18:55:00,
2013-03-13 11:59:00,74.8,24.1,30.08,North,9,3.0,4.0,15,0.00,,---,0.00,VWS V14.01,2013-03-13 18:59:00,
2013-03-13 12:00:00,74.6,23.9,30.08,North,9,1.0,5.0,15,0.00,,---,0.00,VWS V14.01,2013-03-13 19:00:00,
2013-03-13 12:04:00,75.2,24.4,30.08,North,5,0.0,6.0,15,0.00,,---,0.00,VWS V14.01,2013-03-13 19:04:00,
2013-03-13 12:05:00,75.3,24.5,30.08,NNW,337,5.0,6.0,15,0.00,,---,0.00,VWS V14.01,2013-03-13 19:05:00,
2013-03-13 12:09:00,75.1,24.3,30.08,NW,319,5.0,6.0,15,0.00,,---,0.00,VWS V14.01,2013-03-13 19:09:00,
2013-03-13 12:10:00,75.2,24.4,30.08,NW,316,3.0,9.0,15,0.00,,---,0.00,VWS V14.01,2013-03-13 19:10:00,
2013-03-13 12:14:00,74.7,24.0,30.08,WNW,290,3.0,6.0,15,0.00,,---,0.00,VWS V14.01,2013-03-13 19:14:00,
2013-03-13 12:15:00,74.8,24.1,30.08,WNW,284,6.0,6.0,15,0.00,,---,0.00,VWS V14.01,2013-03-13 19:15:00,
2013-03-13 12:19:00,75.2,24.4,30.08,West,262,0.0,0.0,15,0.00,,---,0.00,VWS V14.01,2013-03-13 19:19:00,
2013-03-13 12:20:00,74.9,24.2,30.08,West,262,0.0,6.0,15,0.00,,---,0.00,VWS V14.01,2013-03-13 19:20:00,
2013-03-13 12:24:00,76.0,23.4,30.08,SW,230,6.0,6.0,14,0.00,,---,0.00,VWS V14.01,2013-03-13 19:24:00,
2013-03-13 12:25:00,75.9,25.0,30.08,SW,225,6.0,6.0,15,0.00,,---,0.00,VWS V14.01,2013-03-13 19:25:00,
2013-03-13 12:29:00,75.5,23.0,30.08,West,272,3.0,6.0,14,0.00,,---,0.00,VWS V14.01,2013-03-13 19:29:00,
2013-03-13 12:30:00,75.8,23.2,30.08,West,269,2.0,6.0,14,0.00,,---,0.00,VWS V14.01,2013-03-13 19:30:00,
2013-03-13 12:34:00,75.2,22.8,30.07,WSW,246,4.0,5.0,14,0.00,,---,0.00,VWS V14.01,2013-03-13 19:34:00,
2013-03-13 12:35:00,75.3,22.9,30.08,SSW,213,3.0,7.0,14,0.00,,---,0.00,VWS V14.01,2013-03-13 19:35:00,
2013-03-13 12:39:00,75.1,22.7,30.07,ESE,105,2.0,3.0,14,0.00,,---,0.00,VWS V14.01,2013-03-13 19:39:00,
2013-03-13 12:40:00,75.0,24.3,30.07,WSW,252,0.0,6.0,15,0.00,,---,0.00,VWS V14.01,2013-03-13 19:40:00,
2013-03-13 12:44:00,75.2,22.8,30.07,SE,136,0.0,0.0,14,0.00,,---,0.00,VWS V14.01,2013-03-13 19:44:00,
2013-03-13 12:45:00,75.0,22.6,30.07,SE,136,0.0,4.0,14,0.00,,---,0.00,VWS V14.01,2013-03-13 19:45:00,
2013-03-13 12:49:00,76.2,21.8,30.06,NNW,330,5.0,9.0,13,0.00,,---,0.00,VWS V14.01,2013-03-13 19:49:00,
2013-03-13 12:50:00,76.0,23.4,30.07,NW,325,4.0,6.0,14,0.00,,---,0.00,VWS V14.01,2013-03-13 19:50:00,
2013-03-13 12:54:00,76.0,23.4,30.06,NE,37,0.0,4.0,14,0.00,,---,0.00,VWS V14.01,2013-03-13 19:54:00,
2013-03-13 12:55:00,76.1,23.5,30.06,NE,38,3.0,11.0,14,0.00,,---,0.00,VWS V14.01,2013-03-13 19:55:00,
2013-03-13 12:59:00,76.5,23.8,30.06,NW,304,6.0,7.0,14,0.00,,---,0.00,VWS V14.01,2013-03-13 19:59:00,
2013-03-13 13:00:00,76.3,23.6,30.06,NE,34,3.0,4.0,14,0.00,,---,0.00,VWS V14.01,2013-03-13 20:00:00,
2013-03-13 13:04:00,76.5,23.8,30.05,NNW,337,7.0,9.0,14,0.00,,---,0.00,VWS V14.01,2013-03-13 20:04:00,
2013-03-13 13:05:00,76.6,23.9,30.05,North,5,5.0,15.0,14,0.00,,---,0.00,VWS V14.01,2013-03-13 20:05:00,
2013-03-13 13:09:00,76.5,25.5,30.05,NE,42,0.0,0.0,15,0.00,,---,0.00,VWS V14.01,2013-03-13 20:09:00,
2013-03-13 13:10:00,76.5,23.8,30.06,NE,43,0.0,9.0,14,0.00,,---,0.00,VWS V14.01,2013-03-13 20:10:00,
2013-03-13 13:14:00,77.0,24.2,30.05,NNW,338,6.0,9.0,14,0.00,,---,0.00,VWS V14.01,2013-03-13 20:14:00,
2013-03-13 13:15:00,76.8,24.0,30.06,NE,52,5.0,5.0,14,0.00,,---,0.00,VWS V14.01,2013-03-13 20:15:00,
2013-03-13 13:19:00,77.3,24.4,30.04,ENE,71,2.0,3.0,14,0.00,,---,0.00,VWS V14.01,2013-03-13 20:19:00,
2013-03-13 13:20:00,77.2,24.4,30.06,NE,49,2.0,13.0,14,0.00,,---,0.00,VWS V14.01,2013-03-13 20:20:00,
2013-03-13 13:24:00,77.7,24.8,30.05,NNW,346,4.0,12.0,14,0.00,,---,0.00,VWS V14.01,2013-03-13 20:24:00,
2013-03-13 13:25:00,77.6,24.7,30.05,NNE,17,2.0,12.0,14,0.00,,---,0.00,VWS V14.01,2013-03-13 20:25:00,
2013-03-13 13:29:00,77.9,23.1,30.04,NE,42,0.0,12.0,13,0.00,,---,0.00,VWS V14.01,2013-03-13 20:29:00,
2013-03-13 13:30:00,78.0,25.0,30.05,North,9,6.0,12.0,14,0.00,,---,0.00,VWS V14.01,2013-03-13 20:30:00,
2013-03-13 13:34:00,77.5,24.6,30.04,North,360,4.0,6.0,14,0.00,,---,0.00,VWS V14.01,2013-03-13 20:34:00,
2013-03-13 13:35:00,77.9,24.9,30.04,NW,325,5.0,12.0,14,0.00,,---,0.00,VWS V14.01,2013-03-13 20:35:00,
2013-03-13 13:39:00,77.6,24.7,30.04,NNE,20,5.0,7.0,14,0.00,,---,0.00,VWS V14.01,2013-03-13 20:39:00,
2013-03-13 13:40:00,77.5,24.6,30.04,North,360,2.0,6.0,14,0.00,,---,0.00,VWS V14.01,2013-03-13 20:40:00,
2013-03-13 13:44:00,77.5,24.6,30.03,ENE,67,5.0,9.0,14,0.00,,---,0.00,VWS V14.01,2013-03-13 20:44:00,
2013-03-13 13:45:00,77.5,24.6,30.03,NNE,20,3.0,9.0,14,0.00,,---,0.00,VWS V14.01,2013-03-13 20:45:00,
2013-03-13 13:49:00,77.4,24.5,30.03,North,360,0.0,3.0,14,0.00,,---,0.00,VWS V14.01,2013-03-13 20:49:00,
2013-03-13 13:50:00,77.3,24.4,30.03,North,5,3.0,9.0,14,0.00,,---,0.00,VWS V14.01,2013-03-13 20:50:00,
2013-03-13 13:54:00,77.9,24.9,30.03,WNW,303,9.0,9.0,14,0.00,,---,0.00,VWS V14.01,2013-03-13 20:54:00,
2013-03-13 13:55:00,77.7,24.8,30.03,NNE,32,4.0,6.0,14,0.00,,---,0.00,VWS V14.01,2013-03-13 20:55:00,
2013-03-13 13:59:00,77.9,24.9,30.03,NNE,15,2.0,6.0,14,0.00,,---,0.00,VWS V14.01,2013-03-13 20:59:00,
2013-03-13 14:00:00,77.8,24.8,30.03,North,360,3.0,11.0,14,0.00,,---,0.00,VWS V14.01,2013-03-13 21:00:00,
2013-03-13 14:04:00,77.6,24.7,30.03,NE,56,5.0,9.0,14,0.00,,---,0.00,VWS V14.01,2013-03-13 21:04:00,
2013-03-13 14:05:00,77.7,24.8,30.03,ENE,74,6.0,9.0,14,0.00,,---,0.00,VWS V14.01,2013-03-13 21:05:00,
2013-03-13 14:09:00,77.2,24.4,30.03,NE,53,11.0,11.0,14,0.00,,---,0.00,VWS V14.01,2013-03-13 21:09:00,
2013-03-13 14:10:00,77.3,24.4,30.03,ENE,76,4.0,12.0,14,0.00,,---,0.00,VWS V14.01,2013-03-13 21:10:00,
2013-03-13 14:14:00,76.9,24.1,30.03,East,84,2.0,11.0,14,0.00,,---,0.00,VWS V14.01,2013-03-13 21:14:00,
2013-03-13 14:15:00,76.9,24.1,30.03,East,90,10.0,11.0,14,0.00,,---,0.00,VWS V14.01,2013-03-13 21:15:00,
2013-03-13 14:19:00,77.4,24.5,30.02,NNW,338,5.0,7.0,14,0.00,,---,0.00,VWS V14.01,2013-03-13 21:19:00,
2013-03-13 14:20:00,77.2,24.4,30.02,NNE,23,4.0,11.0,14,0.00,,---,0.00,VWS V14.01,2013-03-13 21:20:00,
2013-03-13 14:24:00,77.7,24.8,30.02,North,350,0.0,2.0,14,0.00,,---,0.00,VWS V14.01,2013-03-13 21:24:00,
2013-03-13 14:25:00,77.6,22.9,30.02,North,355,0.0,7.0,13,0.00,,---,0.00,VWS V14.01,2013-03-13 21:25:00,
2013-03-13 14:29:00,78.3,23.5,30.02,NW,307,5.0,7.0,13,0.00,,---,0.00,VWS V14.01,2013-03-13 21:29:00,
2013-03-13 14:30:00,78.3,23.5,30.02,North,355,6.0,10.0,13,0.00,,---,0.00,VWS V14.01,2013-03-13 21:30:00,
2013-03-13 14:34:00,78.0,23.2,30.02,NNW,338,1.0,6.0,13,0.00,,---,0.00,VWS V14.01,2013-03-13 21:34:00,
2013-03-13 14:35:00,78.1,23.3,30.02,NNW,332,0.0,9.0,13,0.00,,---,0.00,VWS V14.01,2013-03-13 21:35:00,
2013-03-13 14:39:00,78.0,23.2,30.02,NW,310,4.0,6.0,13,0.00,,---,0.00,VWS V14.01,2013-03-13 21:39:00,
2013-03-13 14:40:00,78.0,23.2,30.02,West,281,3.0,7.0,13,0.00,,---,0.00,VWS V14.01,2013-03-13 21:40:00,
2013-03-13 14:44:00,77.8,23.1,30.02,WNW,290,5.0,5.0,13,0.00,,---,0.00,VWS V14.01,2013-03-13 21:44:00,
2013-03-13 14:45:00,77.8,23.1,30.02,WNW,290,4.0,9.0,13,0.00,,---,0.00,VWS V14.01,2013-03-13 21:45:00,
2013-03-13 14:49:00,78.2,23.4,30.01,NE,50,0.0,6.0,13,0.00,,---,0.00,VWS V14.01,2013-03-13 21:49:00,
2013-03-13 14:50:00,78.0,23.2,30.02,NE,45,6.0,9.0,13,0.00,,---,0.00,VWS V14.01,2013-03-13 21:50:00,
2013-03-13 14:54:00,78.4,23.5,30.01,NW,322,6.0,6.0,13,0.00,,---,0.00,VWS V14.01,2013-03-13 21:54:00,
2013-03-13 14:55:00,78.5,23.6,30.01,NW,309,6.0,9.0,13,0.00,,---,0.00,VWS V14.01,2013-03-13 21:55:00,
2013-03-13 14:59:00,78.7,23.8,30.01,NNW,344,4.0,6.0,13,0.00,,---,0.00,VWS V14.01,2013-03-13 21:59:00,
2013-03-13 15:00:00,78.5,23.6,30.01,NW,323,0.0,6.0,13,0.00,,---,0.00,VWS V14.01,2013-03-13 22:00:00,
2013-03-13 15:04:00,78.7,23.8,30.01,NW,315,5.0,9.0,13,0.00,,---,0.00,VWS V14.01,2013-03-13 22:04:00,
2013-03-13 15:05:00,78.7,23.8,30.01,NNW,327,7.0,12.0,13,0.00,,---,0.00,VWS V14.01,2013-03-13 22:05:00,
2013-03-13 15:09:00,78.3,23.5,30.01,NW,311,1.0,7.0,13,0.00,,---,0.00,VWS V14.01,2013-03-13 22:09:00,
2013-03-13 15:10:00,78.4,23.5,30.01,NW,322,7.0,9.0,13,0.00,,---,0.00,VWS V14.01,2013-03-13 22:10:00,
2013-03-13 15:14:00,78.2,23.4,30.00,WSW,254,8.0,8.0,13,0.00,,---,0.00,VWS V14.01,2013-03-13 22:14:00,
2013-03-13 15:15:00,78.1,23.3,30.01,WNW,294,6.0,7.0,13,0.00,,---,0.00,VWS V14.01,2013-03-13 22:15:00,
2013-03-13 15:19:00,78.5,21.7,30.00,SSW,206,1.0,6.0,12,0.00,,---,0.00,VWS V14.01,2013-03-13 22:19:00,
2013-03-13 15:20:00,78.7,21.9,30.00,SSW,198,6.0,10.0,12,0.00,,---,0.00,VWS V14.01,2013-03-13 22:20:00,
2013-03-13 15:24:00,78.7,21.9,30.00,WSW,258,10.0,12.0,12,0.00,,---,0.00,VWS V14.01,2013-03-13 22:24:00,
2013-03-13 15:25:00,78.7,23.8,30.00,WSW,257,7.0,10.0,13,0.00,,---,0.00,VWS V14.01,2013-03-13 22:25:00,
2013-03-13 15:29:00,78.8,22.0,30.00,West,259,9.0,10.0,12,0.00,,---,0.00,VWS V14.01,2013-03-13 22:29:00,
2013-03-13 15:30:00,78.7,21.9,30.00,WSW,238,6.0,12.0,12,0.00,,---,0.00,VWS V14.01,2013-03-13 22:30:00,
2013-03-13 15:34:00,78.5,23.6,30.00,WNW,283,0.0,3.0,13,0.00,,---,0.00,VWS V14.01,2013-03-13 22:34:00,
2013-03-13 15:35:00,78.4,23.5,30.00,WNW,282,0.0,10.0,13,0.00,,---,0.00,VWS V14.01,2013-03-13 22:35:00,
2013-03-13 15:39:00,78.7,23.8,30.00,NE,42,0.0,3.0,13,0.00,,---,0.00,VWS V14.01,2013-03-13 22:39:00,
2013-03-13 15:40:00,78.7,23.8,30.00,NE,42,2.0,4.0,13,0.00,,---,0.00,VWS V14.01,2013-03-13 22:40:00,
2013-03-13 15:44:00,78.8,22.0,30.00,WSW,254,2.0,6.0,12,0.00,,---,0.00,VWS V14.01,2013-03-13 22:44:00,
2013-03-13 15:45:00,78.9,22.0,30.00,WSW,247,4.0,7.0,12,0.00,,---,0.00,VWS V14.01,2013-03-13 22:45:00,
2013-03-13 15:49:00,79.2,24.2,30.00,WSW,256,3.0,5.0,13,0.00,,---,0.00,VWS V14.01,2013-03-13 22:49:00,
2013-03-13 15:50:00,79.1,22.2,30.00,WSW,242,3.0,6.0,12,0.00,,---,0.00,VWS V14.01,2013-03-13 22:50:00,
2013-03-13 15:54:00,78.7,21.9,30.00,NW,322,4.0,7.0,12,0.00,,---,0.00,VWS V14.01,2013-03-13 22:54:00,
2013-03-13 15:55:00,78.8,23.9,30.00,NNW,342,4.0,13.0,13,0.00,,---,0.00,VWS V14.01,2013-03-13 22:55:00,
2013-03-13 15:59:00,78.6,23.7,30.00,NW,309,0.0,0.0,13,0.00,,---,0.00,VWS V14.01,2013-03-13 22:59:00,
2013-03-13 16:00:00,78.6,23.7,30.00,NW,309,0.0,7.0,13,0.00,,---,0.00,VWS V14.01,2013-03-13 23:00:00,
2013-03-13 16:04:00,78.9,22.0,29.99,West,265,0.0,5.0,12,0.00,,---,0.00,VWS V14.01,2013-03-13 23:04:00,
2013-03-13 16:05:00,79.0,22.1,29.99,West,264,5.0,7.0,12,0.00,,---,0.00,VWS V14.01,2013-03-13 23:05:00,
2013-03-13 16:09:00,79.2,22.3,29.99,West,260,3.0,7.0,12,0.00,,---,0.00,VWS V14.01,2013-03-13 23:09:00,
2013-03-13 16:10:00,79.2,22.3,29.99,SW,229,1.0,5.0,12,0.00,,---,0.00,VWS V14.01,2013-03-13 23:10:00,
2013-03-13 16:14:00,79.1,22.2,29.99,West,261,0.0,0.0,12,0.00,,---,0.00,VWS V14.01,2013-03-13 23:14:00,
2013-03-13 16:15:00,79.1,22.2,29.99,West,261,0.0,7.0,12,0.00,,---,0.00,VWS V14.01,2013-03-13 23:15:00,
2013-03-13 16:19:00,79.8,22.7,29.99,West,260,0.0,0.0,12,0.00,,---,0.00,VWS V14.01,2013-03-13 23:19:00,
2013-03-13 16:20:00,79.6,22.6,29.99,West,261,0.0,0.0,12,0.00,,---,0.00,VWS V14.01,2013-03-13 23:20:00,
2013-03-13 16:24:00,80.5,23.3,29.99,West,261,0.0,0.0,12,0.00,,---,0.00,VWS V14.01,2013-03-13 23:24:00,
2013-03-13 16:25:00,80.3,23.1,29.99,West,262,0.0,1.0,12,0.00,,---,0.00,VWS V14.01,2013-03-13 23:25:00,
2013-03-13 16:29:00,80.6,23.4,29.99,WNW,302,0.0,1.0,12,0.00,,---,0.00,VWS V14.01,2013-03-13 23:29:00,
2013-03-13 16:30:00,80.6,23.4,29.99,WNW,302,0.0,3.0,12,0.00,,---,0.00,VWS V14.01,2013-03-13 23:30:00,
2013-03-13 16:34:00,80.8,23.5,29.99,WNW,302,0.0,0.0,12,0.00,,---,0.00,VWS V14.01,2013-03-13 23:34:00,
2013-03-13 16:35:00,80.7,23.4,29.99,WNW,302,0.0,1.0,12,0.00,,---,0.00,VWS V14.01,2013-03-13 23:35:00,
2013-03-13 16:39:00,81.2,23.8,29.99,WNW,302,0.0,0.0,12,0.00,,---,0.00,VWS V14.01,2013-03-13 23:39:00,
2013-03-13 16:40:00,81.1,23.7,29.98,WNW,302,0.0,0.0,12,0.00,,---,0.00,VWS V14.01,2013-03-13 23:40:00,
2013-03-13 16:44:00,81.4,24.0,29.99,WNW,292,0.0,3.0,12,0.00,,---,0.00,VWS V14.01,2013-03-13 23:44:00,
2013-03-13 16:45:00,81.5,24.0,29.99,WNW,292,2.0,3.0,12,0.00,,---,0.00,VWS V14.01,2013-03-13 23:45:00,
2013-03-13 16:49:00,80.6,23.4,29.98,WSW,257,3.0,4.0,12,0.00,,---,0.00,VWS V14.01,2013-03-13 23:49:00,
2013-03-13 16:50:00,81.1,23.7,29.99,West,260,2.0,3.0,12,0.00,,---,0.00,VWS V14.01,2013-03-13 23:50:00,
2013-03-13 16:54:00,79.6,22.6,29.98,NE,39,0.0,4.0,12,0.00,,---,0.00,VWS V14.01,2013-03-13 23:54:00,
2013-03-13 16:55:00,79.8,22.7,29.99,West,259,2.0,4.0,12,0.00,,---,0.00,VWS V14.01,2013-03-13 23:55:00,
2013-03-13 16:59:00,79.1,22.2,29.98,NE,41,2.0,3.0,12,0.00,,---,0.00,VWS V14.01,2013-03-13 23:59:00,
2013-03-13 17:00:00,79.1,24.1,29.98,NE,41,0.0,5.0,13,0.00,,---,0.00,VWS V14.01,2013-03-14 00:00:00,
2013-03-13 17:04:00,78.7,21.9,29.98,ENE,57,1.0,2.0,12,0.00,,---,0.00,VWS V14.01,2013-03-14 00:04:00,
2013-03-13 17:05:00,78.9,22.0,29.98,ENE,57,0.0,7.0,12,0.00,,---,0.00,VWS V14.01,2013-03-14 00:05:00,
2013-03-13 17:09:00,78.7,21.9,29.99,NW,322,0.0,6.0,12,0.00,,---,0.00,VWS V14.01,2013-03-14 00:09:00,
2013-03-13 17:10:00,78.8,22.0,29.98,NW,323,6.0,6.0,12,0.00,,---,0.00,VWS V14.01,2013-03-14 00:10:00,
2013-03-13 17:14:00,78.4,23.5,29.99,ENE,62,5.0,7.0,13,0.00,,---,0.00,VWS V14.01,2013-03-14 00:14:00,
2013-03-13 17:15:00,78.5,23.6,29.99,ENE,60,2.0,9.0,13,0.00,,---,0.00,VWS V14.01,2013-03-14 00:15:00,
2013-03-13 17:19:00,77.9,23.1,29.98,NE,42,0.0,4.0,13,0.00,,---,0.00,VWS V14.01,2013-03-14 00:19:00,
2013-03-13 17:20:00,77.9,23.1,29.98,ENE,66,0.0,7.0,13,0.00,,---,0.00,VWS V14.01,2013-03-14 00:20:00,
2013-03-13 17:24:00,78.0,23.2,29.98,NE,34,1.0,3.0,13,0.00,,---,0.00,VWS V14.01,2013-03-14 00:24:00,
2013-03-13 17:25:00,78.0,23.2,29.98,NE,34,0.0,5.0,13,0.00,,---,0.00,VWS V14.01,2013-03-14 00:25:00,
2013-03-13 17:29:00,77.9,23.1,29.98,NNE,28,0.0,3.0,13,0.00,,---,0.00,VWS V14.01,2013-03-14 00:29:00,
2013-03-13 17:30:00,78.0,23.2,29.98,NNE,28,3.0,5.0,13,0.00,,---,0.00,VWS V14.01,2013-03-14 00:30:00,
2013-03-13 17:34:00,77.7,23.0,29.98,ENE,59,1.0,7.0,13,0.00,,---,0.00,VWS V14.01,2013-03-14 00:34:00,
2013-03-13 17:35:00,77.8,23.1,29.98,ENE,57,5.0,9.0,13,0.00,,---,0.00,VWS V14.01,2013-03-14 00:35:00,
2013-03-13 17:39:00,77.2,22.6,29.99,ENE,57,3.0,3.0,13,0.00,,---,0.00,VWS V14.01,2013-03-14 00:39:00,
2013-03-13 17:40:00,77.3,22.7,29.98,NE,53,3.0,9.0,13,0.00,,---,0.00,VWS V14.01,2013-03-14 00:40:00,
2013-03-13 17:44:00,76.9,24.1,29.99,ENE,61,3.0,7.0,14,0.00,,---,0.00,VWS V14.01,2013-03-14 00:44:00,
2013-03-13 17:45:00,77.0,24.2,29.99,ENE,60,2.0,4.0,14,0.00,,---,0.00,VWS V14.01,2013-03-14 00:45:00,
2013-03-13 17:49:00,76.7,24.0,29.99,ENE,57,3.0,5.0,14,0.00,,---,0.00,VWS V14.01,2013-03-14 00:49:00,
2013-03-13 17:50:00,76.7,24.0,29.99,NE,54,5.0,7.0,14,0.00,,---,0.00,VWS V14.01,2013-03-14 00:50:00,
2013-03-13 17:54:00,76.4,23.7,29.99,ENE,59,4.0,6.0,14,0.00,,---,0.00,VWS V14.01,2013-03-14 00:54:00,
2013-03-13 17:55:00,76.5,23.8,29.99,NE,51,3.0,8.0,14,0.00,,---,0.00,VWS V14.01,2013-03-14 00:55:00,
2013-03-13 17:59:00,76.0,23.4,29.99,NE,55,3.0,5.0,14,0.00,,---,0.00,VWS V14.01,2013-03-14 00:59:00,
2013-03-13 18:00:00,76.2,23.6,29.99,ENE,57,4.0,7.0,14,0.00,,---,0.00,VWS V14.01,2013-03-14 01:00:00,
2013-03-13 18:04:00,75.6,23.1,29.99,NE,52,6.0,6.0,14,0.00,,---,0.00,VWS V14.01,2013-03-14 01:04:00,
2013-03-13 18:05:00,75.7,23.2,29.99,ENE,59,2.0,6.0,14,0.00,,---,0.00,VWS V14.01,2013-03-14 01:05:00,
2013-03-13 18:09:00,75.0,22.6,29.99,NE,52,2.0,6.0,14,0.00,,---,0.00,VWS V14.01,2013-03-14 01:09:00,
2013-03-13 18:10:00,75.2,22.8,29.99,NE,48,4.0,9.0,14,0.00,,---,0.00,VWS V14.01,2013-03-14 01:10:00,
2013-03-13 18:14:00,74.3,22.1,29.99,NE,51,5.0,6.0,14,0.00,,---,0.00,VWS V14.01,2013-03-14 01:14:00,
2013-03-13 18:15:00,74.5,22.2,29.99,ENE,57,3.0,6.0,14,0.00,,---,0.00,VWS V14.01,2013-03-14 01:15:00,
2013-03-13 18:19:00,73.6,23.1,29.99,NE,55,2.0,4.0,15,0.00,,---,0.00,VWS V14.01,2013-03-14 01:19:00,
2013-03-13 18:20:00,73.8,23.3,29.99,NE,55,2.0,6.0,15,0.00,,---,0.00,VWS V14.01,2013-03-14 01:20:00,
2013-03-13 18:24:00,72.4,22.2,29.99,NE,56,4.0,5.0,15,0.00,,---,0.00,VWS V14.01,2013-03-14 01:24:00,
2013-03-13 18:25:00,72.7,22.4,29.99,NE,53,3.0,5.0,15,0.00,,---,0.00,VWS V14.01,2013-03-14 01:25:00,
2013-03-13 18:29:00,71.2,21.2,29.99,ENE,57,4.0,5.0,15,0.00,,---,0.00,VWS V14.01,2013-03-14 01:29:00,
2013-03-13 18:30:00,71.5,21.5,29.99,ENE,57,4.0,6.0,15,0.00,,---,0.00,VWS V14.01,2013-03-14 01:30:00,
2013-03-13 18:34:00,70.2,21.9,30.00,ENE,57,1.0,2.0,16,0.00,,---,0.00,VWS V14.01,2013-03-14 01:34:00,
2013-03-13 18:35:00,70.4,20.6,29.99,NE,56,1.0,6.0,15,0.00,,---,0.00,VWS V14.01,2013-03-14 01:35:00,
2013-03-13 18:39:00,69.0,21.0,29.99,ENE,65,3.0,5.0,16,0.00,,---,0.00,VWS V14.01,2013-03-14 01:39:00,
2013-03-13 18:40:00,69.3,21.2,29.99,ENE,67,3.0,5.0,16,0.00,,---,0.00,VWS V14.01,2013-03-14 01:40:00,
2013-03-13 18:44:00,68.4,20.5,29.99,ENE,57,3.0,5.0,16,0.00,,---,0.00,VWS V14.01,2013-03-14 01:44:00,
2013-03-13 18:45:00,68.5,20.6,29.99,ENE,65,2.0,5.0,16,0.00,,---,0.00,VWS V14.01,2013-03-14 01:45:00,
2013-03-13 18:49:00,68.2,20.3,29.99,ENE,67,1.0,2.0,16,0.00,,---,0.00,VWS V14.01,2013-03-14 01:49:00,
2013-03-13 18:50:00,68.3,20.4,30.00,ENE,67,0.0,6.0,16,0.00,,---,0.00,VWS V14.01,2013-03-14 01:50:00,
2013-03-13 18:54:00,67.6,21.3,30.00,ENE,67,2.0,2.0,17,0.00,,---,0.00,VWS V14.01,2013-03-14 01:54:00,
2013-03-13 18:55:00,67.7,19.9,29.99,ENE,67,0.0,2.0,16,0.00,,---,0.00,VWS V14.01,2013-03-14 01:55:00,
2013-03-13 18:59:00,66.4,20.3,29.99,ENE,67,2.0,6.0,17,0.00,,---,0.00,VWS V14.01,2013-03-14 01:59:00,
2013-03-13 19:00:00,66.7,20.5,29.99,ENE,67,1.0,2.0,17,0.00,,---,0.00,VWS V14.01,2013-03-14 02:00:00,
2013-03-13 19:04:00,65.4,19.5,30.00,ENE,69,2.0,3.0,17,0.00,,---,0.00,VWS V14.01,2013-03-14 02:04:00,
2013-03-13 19:05:00,65.6,19.6,30.00,ENE,68,0.0,6.0,17,0.00,,---,0.00,VWS V14.01,2013-03-14 02:05:00,
2013-03-13 19:09:00,64.9,20.4,30.00,ENE,69,2.0,3.0,18,0.00,,---,0.00,VWS V14.01,2013-03-14 02:09:00,
2013-03-13 19:10:00,65.1,20.6,30.00,ENE,69,2.0,4.0,18,0.00,,---,0.00,VWS V14.01,2013-03-14 02:10:00,
2013-03-13 19:14:00,64.1,19.8,30.00,ENE,69,0.0,3.0,18,0.00,,---,0.00,VWS V14.01,2013-03-14 02:14:00,
2013-03-13 19:15:00,64.4,20.0,30.00,ENE,69,1.0,4.0,18,0.00,,---,0.00,VWS V14.01,2013-03-14 02:15:00,
2013-03-13 19:19:00,63.4,19.2,30.00,ENE,69,0.0,2.0,18,0.00,,---,0.00,VWS V14.01,2013-03-14 02:19:00,
2013-03-13 19:20:00,63.6,19.4,30.00,ENE,69,0.0,3.0,18,0.00,,---,0.00,VWS V14.01,2013-03-14 02:20:00,
2013-03-13 19:24:00,62.7,19.9,30.00,ENE,70,2.0,4.0,19,0.00,,---,0.00,VWS V14.01,2013-03-14 02:24:00,
2013-03-13 19:25:00,62.9,20.0,30.01,ENE,69,2.0,4.0,19,0.00,,---,0.00,VWS V14.01,2013-03-14 02:25:00,
2013-03-13 19:29:00,62.0,19.3,30.00,ENE,69,0.0,0.0,19,0.00,,---,0.00,VWS V14.01,2013-03-14 02:29:00,
2013-03-13 19:30:00,62.1,19.4,30.00,ENE,69,0.0,4.0,19,0.00,,---,0.00,VWS V14.01,2013-03-14 02:30:00,
2013-03-13 19:34:00,61.3,18.7,30.01,ENE,67,5.0,5.0,19,0.00,,---,0.00,VWS V14.01,2013-03-14 02:34:00,
2013-03-13 19:35:00,61.4,18.8,30.00,ENE,68,3.0,4.0,19,0.00,,---,0.00,VWS V14.01,2013-03-14 02:35:00,
2013-03-13 19:39:00,60.7,19.4,30.01,ENE,67,0.0,2.0,20,0.00,,---,0.00,VWS V14.01,2013-03-14 02:39:00,
2013-03-13 19:40:00,60.8,19.5,30.01,ENE,67,1.0,5.0,20,0.00,,---,0.00,VWS V14.01,2013-03-14 02:40:00,
2013-03-13 19:44:00,60.1,18.9,30.00,ENE,67,0.0,0.0,20,0.00,,---,0.00,VWS V14.01,2013-03-14 02:44:00,
2013-03-13 19:45:00,60.2,19.0,30.00,ENE,67,0.0,2.0,20,0.00,,---,0.00,VWS V14.01,2013-03-14 02:45:00,
2013-03-13 19:49:00,60.2,19.0,30.01,NE,53,2.0,6.0,20,0.00,,---,0.00,VWS V14.01,2013-03-14 02:49:00,
2013-03-13 19:50:00,59.9,18.8,30.01,ENE,65,3.0,6.0,20,0.00,,---,0.00,VWS V14.01,2013-03-14 02:50:00,
2013-03-13 19:54:00,61.5,20.1,30.01,NE,56,0.0,0.0,20,0.00,,---,0.00,VWS V14.01,2013-03-14 02:54:00,
2013-03-13 19:55:00,61.3,19.9,30.01,NE,55,0.0,6.0,20,0.00,,---,0.00,VWS V14.01,2013-03-14 02:55:00,
2013-03-13 19:59:00,61.7,20.2,30.01,ENE,57,3.0,3.0,20,0.00,,---,0.00,VWS V14.01,2013-03-14 02:59:00,
2013-03-13 20:00:00,61.7,20.2,30.01,ENE,57,0.0,0.0,20,0.00,,---,0.00,VWS V14.01,2013-03-14 03:00:00,
2013-03-13 20:04:00,63.0,20.1,30.01,ENE,57,0.0,4.0,19,0.00,,---,0.00,VWS V14.01,2013-03-14 03:04:00,
2013-03-13 20:05:00,62.7,21.1,30.01,NE,55,1.0,7.0,20,0.00,,---,0.00,VWS V14.01,2013-03-14 03:05:00,
2013-03-13 20:09:00,63.0,21.3,30.01,ENE,63,0.0,2.0,20,0.00,,---,0.00,VWS V14.01,2013-03-14 03:09:00,
2013-03-13 20:10:00,63.1,20.2,30.01,ENE,57,1.0,4.0,19,0.00,,---,0.00,VWS V14.01,2013-03-14 03:10:00,
2013-03-13 20:14:00,62.6,21.0,30.01,ENE,60,5.0,6.0,20,0.00,,---,0.00,VWS V14.01,2013-03-14 03:14:00,
2013-03-13 20:15:00,62.6,21.0,30.01,ENE,63,3.0,3.0,20,0.00,,---,0.00,VWS V14.01,2013-03-14 03:15:00,
2013-03-13 20:19:00,63.1,20.2,30.02,ENE,63,4.0,6.0,19,0.00,,---,0.00,VWS V14.01,2013-03-14 03:19:00,
2013-03-13 20:20:00,62.9,21.2,30.01,ENE,65,3.0,6.0,20,0.00,,---,0.00,VWS V14.01,2013-03-14 03:20:00,
2013-03-13 20:24:00,62.9,21.2,30.02,ENE,63,0.0,3.0,20,0.00,,---,0.00,VWS V14.01,2013-03-14 03:24:00,
2013-03-13 20:25:00,63.0,20.1,30.02,ENE,63,0.0,6.0,19,0.00,,---,0.00,VWS V14.01,2013-03-14 03:25:00,
2013-03-13 20:29:00,62.0,20.5,30.02,ENE,63,0.0,0.0,20,0.00,,---,0.00,VWS V14.01,2013-03-14 03:29:00,
2013-03-13 20:30:00,62.3,20.8,30.02,ENE,63,0.0,3.0,20,0.00,,---,0.00,VWS V14.01,2013-03-14 03:30:00,
2013-03-13 20:34:00,61.3,19.9,30.02,ENE,59,3.0,5.0,20,0.00,,---,0.00,VWS V14.01,2013-03-14 03:34:00,
2013-03-13 20:35:00,61.5,20.1,30.02,ENE,57,0.0,5.0,20,0.00,,---,0.00,VWS V14.01,2013-03-14 03:35:00,
2013-03-13 20:39:00,62.6,21.0,30.03,NE,53,5.0,9.0,20,0.00,,---,0.00,VWS V14.01,2013-03-14 03:39:00,
2013-03-13 20:40:00,62.2,20.7,30.02,NE,56,7.0,10.0,20,0.00,,---,0.00,VWS V14.01,2013-03-14 03:40:00,
2013-03-13 20:44:00,63.9,20.9,30.03,NE,50,5.0,9.0,19,0.00,,---,0.00,VWS V14.01,2013-03-14 03:44:00,
2013-03-13 20:45:00,63.6,20.6,30.03,NE,49,7.0,10.0,19,0.00,,---,0.00,VWS V14.01,2013-03-14 03:45:00,
2013-03-13 20:49:00,64.5,21.4,30.02,NE,51,4.0,7.0,19,0.00,,---,0.00,VWS V14.01,2013-03-14 03:49:00,
2013-03-13 20:50:00,64.4,21.3,30.03,NE,44,6.0,9.0,19,0.00,,---,0.00,VWS V14.01,2013-03-14 03:50:00,
2013-03-13 20:54:00,64.4,21.3,30.02,NE,38,10.0,10.0,19,0.00,,---,0.00,VWS V14.01,2013-03-14 03:54:00,
2013-03-13 20:55:00,64.5,21.4,30.02,NE,51,3.0,9.0,19,0.00,,---,0.00,VWS V14.01,2013-03-14 03:55:00,
2013-03-13 20:59:00,64.1,21.0,30.02,ENE,59,2.0,7.0,19,0.00,,---,0.00,VWS V14.01,2013-03-14 03:59:00,
2013-03-13 21:00:00,64.0,20.9,30.02,ENE,59,4.0,7.0,19,0.00,,---,0.00,VWS V14.01,2013-03-14 04:00:00,
2013-03-13 21:05:00,63.5,20.5,30.02,NE,53,5.0,9.0,19,0.00,,---,0.00,VWS V14.01,2013-03-14 04:05:00,
2013-03-13 21:10:00,63.6,20.6,30.02,NE,53,4.0,7.0,19,0.00,,---,0.00,VWS V14.01,2013-03-14 04:10:00,
2013-03-13 21:15:00,63.6,20.6,30.03,ENE,61,6.0,7.0,19,0.00,,---,0.00,VWS V14.01,2013-03-14 04:15:00,
2013-03-13 21:20:00,64.0,20.9,30.03,ENE,60,5.0,6.0,19,0.00,,---,0.00,VWS V14.01,2013-03-14 04:20:00,
2013-03-13 21:25:00,63.4,20.5,30.03,ENE,62,0.0,2.0,19,0.00,,---,0.00,VWS V14.01,2013-03-14 04:25:00,
2013-03-13 21:30:00,62.3,20.8,30.03,ENE,61,0.0,4.0,20,0.00,,---,0.00,VWS V14.01,2013-03-14 04:30:00,
2013-03-13 21:35:00,61.5,20.1,30.03,ENE,67,2.0,3.0,20,0.00,,---,0.00,VWS V14.01,2013-03-14 04:35:00,
2013-03-13 21:40:00,61.2,19.8,30.03,ENE,67,3.0,4.0,20,0.00,,---,0.00,VWS V14.01,2013-03-14 04:40:00,
2013-03-13 21:45:00,60.7,20.6,30.03,ENE,71,2.0,5.0,21,0.00,,---,0.00,VWS V14.01,2013-03-14 04:45:00,
2013-03-13 21:50:00,60.2,20.1,30.03,ENE,72,3.0,5.0,21,0.00,,---,0.00,VWS V14.01,2013-03-14 04:50:00,
2013-03-13 21:55:00,60.1,20.1,30.03,ENE,74,0.0,1.0,21,0.00,,---,0.00,VWS V14.01,2013-03-14 04:55:00,
2013-03-13 22:00:00,59.5,19.6,30.03,ENE,74,1.0,3.0,21,0.00,,---,0.00,VWS V14.01,2013-03-14 05:00:00,
2013-03-13 22:05:00,59.2,19.3,30.03,ENE,73,3.0,4.0,21,0.00,,---,0.00,VWS V14.01,2013-03-14 05:05:00,
2013-03-13 22:10:00,59.5,19.6,30.03,ENE,72,3.0,5.0,21,0.00,,---,0.00,VWS V14.01,2013-03-14 05:10:00,
2013-03-13 22:15:00,60.0,20.0,30.03,ENE,74,4.0,5.0,21,0.00,,---,0.00,VWS V14.01,2013-03-14 05:15:00,
2013-03-13 22:20:00,60.5,20.4,30.03,ENE,71,3.0,4.0,21,0.00,,---,0.00,VWS V14.01,2013-03-14 05:20:00,
2013-03-13 22:25:00,60.2,20.1,30.03,ENE,71,0.0,0.0,21,0.00,,---,0.00,VWS V14.01,2013-03-14 05:25:00,
2013-03-13 22:30:00,59.0,19.1,30.03,ENE,71,0.0,0.0,21,0.00,,---,0.00,VWS V14.01,2013-03-14 05:30:00,
2013-03-13 22:35:00,58.0,19.4,30.03,ENE,71,0.0,0.0,22,0.00,,---,0.00,VWS V14.01,2013-03-14 05:35:00,
2013-03-13 22:40:00,57.3,18.8,30.03,SE,125,0.0,0.0,22,0.00,,---,0.00,VWS V14.01,2013-03-14 05:40:00,
2013-03-13 22:45:00,57.0,18.5,30.03,SE,126,0.0,0.0,22,0.00,,---,0.00,VWS V14.01,2013-03-14 05:45:00,
2013-03-13 22:50:00,57.5,19.0,30.03,SSE,165,0.0,1.0,22,0.00,,---,0.00,VWS V14.01,2013-03-14 05:50:00,
2013-03-13 22:55:00,58.0,19.4,30.03,SSE,164,0.0,0.0,22,0.00,,---,0.00,VWS V14.01,2013-03-14 05:55:00,
2013-03-13 23:00:00,57.7,19.1,30.04,SSE,165,0.0,0.0,22,0.00,,---,0.00,VWS V14.01,2013-03-14 06:00:00,
2013-03-13 23:05:00,57.7,19.1,30.04,SSE,164,0.0,0.0,22,0.00,,---,0.00,VWS V14.01,2013-03-14 06:05:00,
2013-03-13 23:10:00,57.5,19.0,30.04,SSE,165,0.0,0.0,22,0.00,,---,0.00,VWS V14.01,2013-03-14 06:10:00,
2013-03-13 23:15:00,57.0,19.6,30.03,SSE,165,0.0,0.0,23,0.00,,---,0.00,VWS V14.01,2013-03-14 06:15:00,
2013-03-13 23:20:00,56.2,18.9,30.03,SSE,165,0.0,0.0,23,0.00,,---,0.00,VWS V14.01,2013-03-14 06:20:00,
2013-03-13 23:25:00,55.7,19.5,30.03,SSE,165,0.0,0.0,24,0.00,,---,0.00,VWS V14.01,2013-03-14 06:25:00,
2013-03-13 23:30:00,55.4,19.2,30.03,SSE,160,0.0,0.0,24,0.00,,---,0.00,VWS V14.01,2013-03-14 06:30:00,
2013-03-13 23:35:00,55.1,19.0,30.04,SSE,161,0.0,0.0,24,0.00,,---,0.00,VWS V14.01,2013-03-14 06:35:00,
2013-03-13 23:40:00,54.6,19.5,30.04,SSE,156,0.0,0.0,25,0.00,,---,0.00,VWS V14.01,2013-03-14 06:40:00,
2013-03-13 23:45:00,53.8,18.8,30.04,SSE,155,0.0,0.0,25,0.00,,---,0.00,VWS V14.01,2013-03-14 06:45:00,
2013-03-13 23:50:00,52.7,18.8,30.04,SSE,155,0.0,0.0,26,0.00,,---,0.00,VWS V14.01,2013-03-14 06:50:00,
2013-03-13 23:55:00,51.9,19.0,30.04,SSE,155,0.0,0.0,27,0.00,,---,0.00,VWS V14.01,2013-03-14 06:55:00,